Date String (YYYY-MM-DD hh:mm:ss) UTC,Instrument flags,absolute air pressure of the measurement (hPa),sample flow rate (lpm),inlet stack bypass flow (lpm),air temperature of the measurement (°C),ambient temperature measured by the external sensor (°C),aerosol sample conditioner tube jacket temperature (°C),OPC LED temperature (°C),internal box temperature (°C),relative humidity of the measurement (%),span deviation,mass concentration of particles derived from Lorenz-Mie calculation of OPC scattering (μg/m³),mass concentration of particles derived from Lorenz-Mie calculation of OPC scattering (μg/m³),mass concentration of particles derived from Lorenz-Mie calculation of OPC scattering (μg/m³)
DateTimeUTC,F1_M11,P_M11,Q1_M11,Q2_M11,T1_M11,T2_M11,T3_M11,T4_M11,T5_M11,U1_M11,ZSPAN_M11,X0_M11,X2_M11,X1_M11
2023-06-03 23:00:00,SystemResetWarning,0832.1,5.00,000.00,030.1,026.0,000.0,038.3,031.4,27.3,0000.0,0006.78,0001.71,0001.32
2023-06-03 23:01:00,SystemResetWarning,0832.2,5.01,000.00,030.0,026.1,000.0,038.3,031.3,28.0,0000.0,0005.38,0001.75,0001.33
2023-06-03 23:02:00,SystemResetWarning,0832.1,5.01,000.00,029.9,026.4,000.0,038.3,031.3,28.6,0000.0,0005.04,0001.74,0001.33
2023-06-03 23:03:00,SystemResetWarning,0832.1,5.00,000.00,029.9,026.8,000.0,038.3,031.4,28.8,0000.0,0004.73,0001.74,0001.34
2023-06-03 23:04:00,SystemResetWarning,0832.1,5.00,000.00,029.9,027.1,000.0,038.3,031.4,28.7,0000.0,0004.38,0001.75,0001.35
2023-06-03 23:05:00,SystemResetWarning,0832.1,5.00,000.00,029.9,027.4,000.0,038.3,031.4,28.8,0000.0,0004.38,0001.76,0001.35
2023-06-03 23:06:00,SystemResetWarning,0832.0,5.01,000.00,029.9,027.6,000.0,038.3,031.4,28.5,0000.0,0004.68,0001.76,0001.35
2023-06-03 23:07:00,SystemResetWarning,0832.0,4.99,000.00,029.9,027.8,000.0,038.3,031.5,27.9,0000.0,0004.83,0001.73,0001.34
2023-06-03 23:08:00,SystemResetWarning,0832.1,4.99,000.00,029.9,028.0,000.0,038.3,031.5,28.6,0000.0,0004.71,0001.68,0001.33
2023-06-03 23:09:00,SystemResetWarning,0832.1,5.00,000.00,029.9,028.1,000.0,038.3,031.5,28.6,0000.0,0004.69,0001.67,0001.31
2023-06-03 23:10:00,SystemResetWarning,0832.1,5.01,000.00,029.9,028.2,000.0,038.3,031.5,28.3,0000.0,0004.76,0001.70,0001.31
2023-06-03 23:11:00,SystemResetWarning,0832.1,5.01,000.00,029.9,028.3,000.0,038.3,031.6,28.1,0000.0,0004.57,0001.69,0001.30
2023-06-03 23:12:00,SystemResetWarning,0832.1,5.00,000.00,030.0,028.4,000.0,038.3,031.6,28.1,0000.0,0004.05,0001.64,0001.30
2023-06-03 23:13:00,SystemResetWarning,0832.2,5.00,000.00,030.0,028.4,000.0,038.3,031.6,28.0,0000.0,0003.98,0001.64,0001.28
2023-06-03 23:14:00,SystemResetWarning,0832.1,5.00,000.00,030.0,028.5,000.0,038.3,031.6,27.8,0000.0,0003.65,0001.65,0001.28
2023-06-03 23:15:00,SystemResetWarning,0832.2,4.99,000.00,030.0,028.5,000.0,038.3,031.6,28.8,0000.0,0003.34,0001.64,0001.28
2023-06-03 23:16:00,SystemResetWarning,0832.2,5.00,000.00,030.0,028.5,000.0,038.3,031.6,28.3,0000.0,0003.32,0001.63,0001.28
2023-06-03 23:17:00,SystemResetWarning,0832.2,5.01,000.00,030.0,028.5,000.0,038.3,031.6,28.3,0000.0,0003.00,0001.59,0001.28
2023-06-03 23:18:00,SystemResetWarning,0832.2,5.01,000.00,030.0,028.5,000.0,038.3,031.6,28.6,0000.0,0002.54,0001.57,0001.28
2023-06-03 23:19:00,SystemResetWarning,0832.2,5.00,000.00,030.0,028.5,000.0,038.3,031.7,27.9,0000.0,0002.58,0001.58,0001.28
2023-06-03 23:20:00,SystemResetWarning,0832.2,5.00,000.00,030.0,028.5,000.0,038.3,031.7,28.0,0000.0,0002.64,0001.58,0001.29
2023-06-03 23:21:00,SystemResetWarning,0832.2,5.00,000.00,030.0,028.5,000.0,038.3,031.7,27.8,0000.0,0002.57,0001.55,0001.28
2023-06-03 23:22:00,SystemResetWarning,0832.2,5.00,000.00,030.0,028.6,000.0,038.4,031.7,27.5,0000.0,0002.45,0001.51,0001.28
2023-06-03 23:23:00,SystemResetWarning,0832.3,5.00,000.00,030.0,028.6,000.0,038.4,031.7,27.5,0000.0,0002.42,0001.50,0001.27
2023-06-03 23:24:00,SystemResetWarning,0832.3,5.00,000.00,030.0,028.6,000.0,038.4,031.7,27.5,0000.0,0002.39,0001.48,0001.26
2023-06-03 23:25:00,SystemResetWarning,0832.3,5.00,000.00,030.1,028.6,000.0,038.4,031.7,27.3,0000.0,0002.25,0001.43,0001.23
2023-06-03 23:26:00,SystemResetWarning,0832.3,5.00,000.00,030.1,028.7,000.0,038.4,031.7,27.3,0000.0,0002.13,0001.37,0001.19
2023-06-03 23:27:00,SystemResetWarning,0832.3,5.00,000.00,030.1,028.7,000.0,038.4,031.8,27.4,0000.0,0002.19,0001.36,0001.17
2023-06-03 23:28:00,SystemResetWarning,0832.2,5.00,000.00,030.1,028.7,000.0,038.4,031.7,27.3,0000.0,0002.25,0001.37,0001.15
2023-06-03 23:29:00,SystemResetWarning,0832.3,5.01,000.00,030.1,028.8,000.0,038.4,031.8,27.3,0000.0,0002.21,0001.38,0001.15
2023-06-03 23:30:00,SystemResetWarning,0832.2,5.00,000.00,030.1,028.8,000.0,038.5,031.8,26.7,0000.0,0002.17,0001.37,0001.13
2023-06-03 23:31:00,SystemResetWarning,0832.2,4.99,000.00,030.2,028.8,000.0,038.5,031.8,27.1,0000.0,0002.09,0001.37,0001.12
2023-06-03 23:32:00,SystemResetWarning,0832.2,5.00,000.00,030.2,028.8,000.0,038.5,031.8,27.2,0000.0,0002.15,0001.38,0001.10
2023-06-03 23:33:00,SystemResetWarning,0832.2,5.01,000.00,030.2,028.9,000.0,038.5,031.9,27.0,0000.0,0002.08,0001.35,0001.09
2023-06-03 23:34:00,SystemResetWarning,0832.2,5.01,000.00,030.2,028.9,000.0,038.5,031.9,26.9,0000.0,0002.04,0001.35,0001.09
2023-06-03 23:35:00,SystemResetWarning,0832.2,5.00,000.00,030.2,028.9,000.0,038.5,031.9,26.8,0000.0,0001.96,0001.35,0001.12
2023-06-03 23:36:00,SystemResetWarning,0832.2,4.98,000.00,030.2,028.9,000.0,038.5,031.9,26.8,0000.0,0002.02,0001.41,0001.17
2023-06-03 23:37:00,SystemResetWarning,0832.2,5.01,000.00,030.3,028.9,000.0,038.6,031.9,26.8,0000.0,0002.09,0001.47,0001.23
2023-06-03 23:38:00,SystemResetWarning,0832.2,5.01,000.00,030.3,028.9,000.0,038.6,031.9,26.7,0000.0,0002.17,0001.53,0001.30
2023-06-03 23:39:00,SystemResetWarning,0832.2,5.01,000.00,030.3,029.0,000.0,038.6,032.0,26.8,0000.0,0002.28,0001.60,0001.36
2023-06-03 23:40:00,SystemResetWarning,0832.2,4.98,000.00,030.3,028.5,000.0,038.6,031.9,26.6,0000.0,0002.37,0001.59,0001.37
2023-06-03 23:41:00,SystemResetWarning,0832.1,5.01,000.00,030.3,026.8,000.0,038.5,031.6,26.6,0000.0,0002.39,0001.61,0001.39
2023-06-03 23:42:00,SystemResetWarning,0832.0,5.01,000.00,030.2,026.0,000.0,038.4,031.5,26.3,0000.0,0002.38,0001.60,0001.39
2023-06-03 23:43:00,SystemResetWarning,0832.0,5.00,000.00,030.1,026.0,000.0,038.4,031.4,26.2,0000.0,0002.35,0001.59,0001.39
2023-06-03 23:44:00,SystemResetWarning,0832.0,5.01,000.00,030.0,026.3,000.0,038.4,031.4,26.5,0000.0,0002.43,0001.61,0001.40
2023-06-03 23:45:00,SystemResetWarning,0832.0,4.99,000.00,030.0,026.6,000.0,038.4,031.4,26.8,0000.0,0002.43,0001.61,0001.39
2023-06-03 23:46:00,SystemResetWarning,0832.0,4.99,000.00,030.0,027.0,000.0,038.4,031.4,27.0,0000.0,0002.50,0001.60,0001.36
2023-06-03 23:47:00,SystemResetWarning,0832.0,5.00,000.00,029.9,027.3,000.0,038.4,031.4,27.3,0000.0,0002.49,0001.56,0001.31
2023-06-03 23:48:00,SystemResetWarning,0831.9,5.00,000.00,029.9,027.6,000.0,038.4,031.5,27.4,0000.0,0002.54,0001.56,0001.27
2023-06-03 23:49:00,SystemResetWarning,0831.9,5.01,000.00,029.9,027.8,000.0,038.4,031.5,27.2,0000.0,0002.38,0001.50,0001.23
2023-06-03 23:50:00,SystemResetWarning,0831.9,5.00,000.00,029.9,027.9,000.0,038.4,031.5,26.8,0000.0,0002.25,0001.43,0001.17
2023-06-03 23:51:00,SystemResetWarning,0831.9,5.00,000.00,030.0,028.1,000.0,038.4,031.5,26.7,0000.0,0002.16,0001.44,0001.17
2023-06-03 23:52:00,SystemResetWarning,0831.9,5.00,000.00,030.0,028.2,000.0,038.4,031.6,26.5,0000.0,0002.17,0001.46,0001.17
2023-06-03 23:53:00,SystemResetWarning,0831.9,5.00,000.00,030.0,028.3,000.0,038.4,031.6,26.7,0000.0,0002.67,0001.47,0001.16
2023-06-03 23:54:00,SystemResetWarning,0831.9,5.00,000.00,030.0,028.4,000.0,038.4,031.6,26.9,0000.0,0003.22,0001.48,0001.18
2023-06-03 23:55:00,SystemResetWarning,0831.9,5.00,000.00,030.0,028.5,000.0,038.4,031.7,26.6,0000.0,0003.43,0001.47,0001.19
2023-06-03 23:56:00,SystemResetWarning,0831.9,5.00,000.00,030.0,028.5,000.0,038.4,031.7,27.0,0000.0,0004.31,0001.49,0001.20
2023-06-03 23:57:00,SystemResetWarning,0831.9,5.00,000.00,030.0,028.6,000.0,038.4,031.7,27.2,0000.0,0004.30,0001.50,0001.21
2023-06-03 23:58:00,SystemResetWarning,0832.0,5.00,000.00,030.1,028.6,000.0,038.4,031.7,26.7,0000.0,0004.29,0001.52,0001.23
2023-06-03 23:59:00,SystemResetWarning,0832.0,4.99,000.00,030.1,028.7,000.0,038.4,031.8,27.2,0000.0,0004.27,0001.51,0001.24
